| time (UTC) | temp C | wind direction | speed KPH | gust KPH | rain 1hr cm | rain 24hr cm | rain mn cm | humidity % | barometer mb |
| 20260503050017 | 7 | 245 | 0.0 | 3.2 | 0.00 | 0.00 | 0.00 | 67 | 1010.8 |
| 20260503044525 | 7 | 249 | 1.6 | 6.4 | 0.00 | 0.00 | 0.00 | 68 | 1010.8 |
| 20260503043016 | 7 | 126 | 0.0 | 1.6 | 0.00 | 0.00 | 0.00 | 68 | 1010.9 |
| 20260503041515 | 7 | 126 | 1.6 | 3.2 | 0.00 | 0.00 | 0.00 | 68 | 1011.0 |
| 20260503040015 | 7 | 126 | 0.0 | 3.2 | 0.00 | 0.00 | 0.00 | 68 | 1011.2 |
| 20260503034511 | 7 | 126 | 0.0 | 3.2 | 0.00 | 0.00 | 0.00 | 65 | 1011.5 |
| 20260503033010 | 8 | 126 | 0.0 | 0.0 | 0.00 | 0.00 | 0.00 | 64 | 1011.7 |
| 20260503031508 | 8 | 126 | 0.0 | 3.2 | 0.00 | 0.00 | 0.00 | 64 | 1011.9 |
| 20260503030006 | 9 | 126 | 0.0 | 1.6 | 0.00 | 0.00 | 0.00 | 60 | 1012.0 |
| 20260503024504 | 10 | 126 | 0.0 | 0.0 | 0.00 | 0.00 | 0.00 | 55 | 1012.3 |
| 20260503023011 | 10 | 126 | 0.0 | 1.6 | 0.00 | 0.00 | 0.00 | 56 | 1012.4 |
| 20260503021503 | 10 | 126 | 0.0 | 4.8 | 0.00 | 0.00 | 0.00 | 55 | 1012.5 |
| 20260503020002 | 10 | 124 | 0.0 | 3.2 | 0.00 | 0.00 | 0.00 | 53 | 1012.5 |
| 20260503014502 | 11 | 124 | 0.0 | 1.6 | 0.00 | 0.00 | 0.00 | 49 | 1012.5 |
| 20260503013001 | 11 | 124 | 0.0 | 3.2 | 0.00 | 0.00 | 0.00 | 49 | 1012.4 |
| 20260503011608 | 11 | 123 | 0.0 | 4.8 | 0.00 | 0.00 | 0.00 | 46 | 1012.5 |
| 20260503010100 | 12 | 221 | 0.0 | 6.4 | 0.00 | 0.00 | 0.00 | 44 | 1012.8 |
| 20260503004557 | 12 | 220 | 3.2 | 6.4 | 0.00 | 0.00 | 0.00 | 43 | 1012.8 |
| 20260503003104 | 12 | 209 | 4.8 | 11.3 | 0.00 | 0.00 | 0.00 | 41 | 1013.0 |
| 20260503001554 | 13 | 225 | 3.2 | 17.7 | 0.00 | 0.00 | 0.00 | 40 | 1013.1 |
| 20260503000108 | 13 | 324 | 4.8 | 14.5 | 0.00 | 0.00 | 0.00 | 39 | 1013.2 |
| 20260502234551 | 13 | 17 | 1.6 | 12.9 | 0.00 | 0.00 | 0.00 | 38 | 1013.3 |
| 20260502233051 | 13 | 332 | 3.2 | 19.3 | 0.00 | 0.00 | 0.00 | 37 | 1013.5 |
| 20260502231550 | 13 | 13 | 3.2 | 19.3 | 0.00 | 0.00 | 0.00 | 37 | 1013.4 |
| 20260502230051 | 14 | 301 | 4.8 | 24.1 | 0.00 | 0.00 | 0.00 | 33 | 1013.5 |
| 20260502224548 | 15 | 315 | 4.8 | 25.7 | 0.00 | 0.00 | 0.00 | 32 | 1013.5 |
| 20260502223047 | 15 | 211 | 4.8 | 19.3 | 0.00 | 0.00 | 0.00 | 31 | 1013.7 |
| 20260502221546 | 14 | 214 | 4.8 | 20.9 | 0.00 | 0.00 | 0.00 | 35 | 1013.7 |
| 20260502220046 | 14 | 340 | 4.8 | 19.3 | 0.00 | 0.00 | 0.00 | 32 | 1013.9 |
| 20260502214542 | 14 | 257 | 3.2 | 20.9 | 0.00 | 0.00 | 0.00 | 35 | 1014.0 |
| 20260502213041 | 15 | 213 | 9.7 | 25.7 | 0.00 | 0.00 | 0.00 | 31 | 1014.2 |
| 20260502211547 | 14 | 28 | 6.4 | 16.1 | 0.00 | 0.00 | 0.00 | 33 | 1014.3 |
| 20260502210037 | 14 | 11 | 8.0 | 25.7 | 0.00 | 0.00 | 0.00 | 33 | 1014.3 |
| 20260502204536 | 14 | 238 | 6.4 | 20.9 | 0.00 | 0.00 | 0.00 | 34 | 1014.5 |
| 20260502203034 | 14 | 354 | 1.6 | 22.5 | 0.00 | 0.00 | 0.00 | 33 | 1014.7 |
| 20260502201534 | 14 | 338 | 6.4 | 16.1 | 0.00 | 0.00 | 0.00 | 31 | 1015.2 |
| 20260502200038 | 14 | 251 | 11.3 | 30.6 | 0.00 | 0.00 | 0.00 | 36 | 1015.3 |
| 20260502194528 | 13 | 339 | 6.4 | 24.1 | 0.00 | 0.00 | 0.00 | 31 | 1015.7 |
| 20260502193024 | 13 | 1 | 14.5 | 32.2 | 0.00 | 0.00 | 0.00 | 34 | 1015.9 |
| 20260502191523 | 13 | 44 | 6.4 | 14.5 | 0.00 | 0.00 | 0.00 | 34 | 1016.0 |
| 20260502190021 | 13 | 326 | 6.4 | 20.9 | 0.00 | 0.00 | 0.00 | 35 | 1016.3 |
| 20260502184527 | 13 | 340 | 3.2 | 12.9 | 0.00 | 0.00 | 0.00 | 35 | 1016.3 |
| 20260502183015 | 12 | 324 | 9.7 | 19.3 | 0.00 | 0.00 | 0.00 | 36 | 1016.6 |
| 20260502181512 | 12 | 274 | 8.0 | 22.5 | 0.00 | 0.00 | 0.00 | 37 | 1016.9 |
| 20260502163103 | 11 | 223 | 6.4 | 25.7 | 0.00 | 0.00 | 0.00 | 38 | 1018.3 |
| 20260502161559 | 11 | 321 | 9.7 | 24.1 | 0.00 | 0.00 | 0.00 | 36 | 1018.4 |
| 20260502151549 | 10 | 206 | 3.2 | 14.5 | 0.00 | 0.00 | 0.00 | 45 | 1019.0 |
| 20260502123002 | 0 | 301 | 0.0 | 1.6 | 0.00 | 0.00 | 0.00 | 92 | 1020.2 |
| 20260502121559 | -1 | 337 | 0.0 | 1.6 | 0.00 | 0.00 | 0.00 | 92 | 1020.5 |
| 20260502114558 | -2 | 9 | 0.0 | 0.0 | 0.00 | 0.00 | 0.00 | 92 | 1020.3 |
| 20260502113056 | -3 | 57 | 0.0 | 1.6 | 0.00 | 0.00 | 0.00 | 91 | 1020.2 |
| 20260502111556 | -4 | 33 | 0.0 | 0.0 | 0.00 | 0.00 | 0.00 | 91 | 1020.1 |
| 20260502110055 | -4 | 33 | 0.0 | 0.0 | 0.00 | 0.00 | 0.00 | 91 | 1020.2 |
| 20260502104554 | -4 | 33 | 0.0 | 0.0 | 0.00 | 0.00 | 0.00 | 90 | 1020.2 |
| 20260502103051 | -3 | 33 | 0.0 | 0.0 | 0.00 | 0.00 | 0.00 | 90 | 1020.3 |
| 20260502101550 | -3 | 33 | 0.0 | 0.0 | 0.00 | 0.00 | 0.00 | 90 | 1020.4 |
| 20260502071533 | -2 | 33 | 0.0 | 0.0 | 0.00 | 0.00 | 0.00 | 86 | 1020.6 |
| 20260502070034 | -2 | 33 | 0.0 | 0.0 | 0.00 | 0.00 | 0.00 | 85 | 1020.6 |
| 20260502064532 | -2 | 33 | 0.0 | 1.6 | 0.00 | 0.00 | 0.00 | 85 | 1020.7 |
| 20260502063026 | -1 | 33 | 0.0 | 0.0 | 0.00 | 0.00 | 0.00 | 84 | 1020.8 |
| 20260502061524 | -1 | 33 | 0.0 | 0.0 | 0.00 | 0.00 | 0.00 | 83 | 1020.8 |
| 20260502060022 | -1 | 33 | 0.0 | 0.0 | 0.00 | 0.00 | 0.00 | 83 | 1020.7 |
| 20260502054521 | -1 | 33 | 0.0 | 0.0 | 0.00 | 0.00 | 0.00 | 82 | 1020.7 |
| 20260502053019 | -1 | 33 | 0.0 | 0.0 | 0.00 | 0.00 | 0.00 | 81 | 1020.8 |
| 20260502051517 | -1 | 33 | 0.0 | 0.0 | 0.00 | 0.00 | 0.00 | 81 | 1020.9 |